Location: Allmering
(48.4892°N, 10.9458°E)
Time: 08:05:57
(UTC+00:00)

Daily predictions for brighter satellites

Satellite Brightness Start Highest point End
(mag) Time Altitude Azimuth Time Altitude Azimuth Time Altitude Azimuth
Cosmos 2016 Rocket 4.0 18:01:35 10° N 18:07:39 62° ENE 18:13:44 10° SSE
Cosmos 1741 Rocket 4.1 18:02:33 10° NNW 18:07:46 64° ENE 18:12:56 10° SE
CZ-4C R/B 3.8 18:02:01 10° NW 18:07:53 32° NNE 18:14:51 10° E
Meteor 2-10 4.2 18:04:06 10° SSE 18:08:52 46° E 18:13:45 10° NNE
CENTAUR R/B 3.7 18:01:54 10° NW 18:10:04 70° SW 18:19:04 10° SSE
IGS 5A 3.6 18:07:18 10° SSE 18:11:19 54° ENE 18:15:22 10° N
Cosmos 2173 Rocket 4.2 18:05:05 10° N 18:11:29 83° W 18:17:51 10° S
NOSS 3-2 (A) 4.5 18:04:04 10° NW 18:11:31 71° SW 18:20:08 10° SSE
Okean-O 3.8 18:10:14 10° ESE 18:13:51 26° ENE 18:17:30 10° N
Okean O Rocket 1.6 18:10:35 10° SSE 18:14:55 62° ENE 18:19:16 10° N
Cosmos 2123 Rocket 4.1 18:09:04 10° S 18:15:16 63° E 18:21:31 10° NNE
Lacrosse 5 rocket 1.6 18:12:35 10° SSW 18:16:48 52° SE 18:20:49 10° ENE
Okean 2 3.4 18:13:57 10° N 18:17:59 57° ENE 18:22:00 10° SSE
Cosmos 2242 Rocket 3.6 18:14:42 10° N 18:19:18 79° E 18:23:50 10° SSE
Cosmos 2297 Rocket 2.5 18:14:54 10° S 18:20:10 42° ESE 18:25:28 10° NE
Cosmos 2098 Rocket 4.0 18:15:19 10° S 18:21:03 75° E 18:27:50 10° NNE
NOSS 3-2 (C) 4.1 18:17:32 10° NW 18:24:58 88° NE 18:33:39 10° SE
COSMOS 2428 3.7 18:19:46 10° NW 18:25:17 49° WSW 18:30:47 10° S
Iridium 4 Rocket 3.0 18:22:47 10° N 18:26:54 59° E 18:31:03 10° SSE
SJ-6B 2.8 18:24:32 10° SSE 18:28:20 57° ENE 18:32:04 10° N
Cosmos 1271 Rocket 3.9 18:26:06 10° SE 18:28:57 21° E 18:31:47 10° NE
GEOS 3 Rocket 3.8 18:26:21 10° NE 18:31:38 54° SE 18:36:54 10° SSW
Cosmos 1975 3.6 18:30:28 10° SSW 18:34:22 56° WNW 18:38:19 10° N
ISS -3.3 18:31:34 10° WNW 18:34:52 54° N 18:37:31 15° E
Cosmos 2219 4.1 18:30:31 10° SSE 18:35:02 26° ESE 18:39:35 10° NE
Cosmos 1726 1.9 18:32:18 10° S 18:35:47 76° E 18:39:19 10° NNE
SL-14 R/B 3.1 18:32:44 10° N 18:36:36 81° ENE 18:40:25 10° SSE
Cosmos 2227 Rocket 2.7 18:31:36 10° S 18:36:41 35° ESE 18:41:47 10° NE
USA 238 DEB 4.0 18:31:52 10° NW 18:39:11 88° NE 18:46:59 10° SE
USA 238 4.0 18:31:58 10° NW 18:39:17 87° NE 18:47:05 10° SE
Cosmos 1869 Rocket 3.7 18:37:50 10° SSW 18:42:09 76° WNW 18:46:32 10° N
MINOTAUR 4 R/B 4.0 18:39:01 10° NNE 18:42:28 83° W 18:45:52 10° SSW
Cosmos 1470 4.2 18:42:55 17° ESE 18:44:06 19° E 18:46:53 10° NE
USA 186 1.6 18:42:39 10° SSE 18:45:45 78° ENE 18:48:55 10° N
IRS-1C Rocket 4.4 18:46:25 10° SE 18:51:28 50° ENE 18:56:34 10° N
SL-16 R/B 2.7 18:46:22 10° NNW 18:51:49 43° NE 18:55:39 18° ESE
BlueWalker 3 3.1 18:52:02 10° S 18:55:10 23° SE 18:55:50 22° ESE
BREEZE M DEB (TANK) 1.9 18:53:10 10° W 18:55:37 67° N 18:56:43 26° ENE
BREEZE-M DEB (TANK) 2.9 18:50:29 10° W 18:56:57 83° N 18:58:35 25° E
Landsat 7 3.8 18:52:33 10° SSE 18:57:16 86° WSW 19:02:01 10° NNW
Cosmos 2233 Rocket 4.0 18:53:41 10° N 18:59:53 88° W 19:06:05 10° S
Cosmos 1867 3.9 18:55:49 10° SW 19:01:14 68° NW 19:06:42 10° NE
CSL-04 Rocket 3.7 18:58:31 10° SSE 19:04:05 89° W 19:09:39 10° NNW
USA 215 3.7 19:01:18 10° NE 19:07:45 62° NNW 19:14:09 10° WSW
Meteor 2-5 Rocket 4.2 19:02:51 10° N 19:08:28 45° ENE 19:12:02 22° SE
H-2A R/B 4.0 19:08:18 21° E 19:09:13 22° ENE 19:12:39 10° NNE
Terra 3.7 19:09:42 14° ENE 19:10:24 14° NE 19:12:50 10° NNE
Cosmos 1110 Rocket 4.4 19:07:56 10° SSW 19:13:06 65° WNW 19:18:17 10° NNE
Cosmos 2263 Rocket 3.6 19:21:15 18° ENE 19:21:15 18° ENE 19:23:26 10° NE
SL-4 R/B 2.3 19:14:39 10° SW 19:19:15 58° SSE 19:21:28 28° E
Cosmos 1674 Rocket 3.4 19:14:56 10° N 19:19:16 70° ENE 19:21:45 25° SSE
Cosmos 1733 Rocket 3.0 19:15:59 10° S 19:20:17 85° W 19:24:39 10° N
Meteor 2-13 Rocket 4.4 19:15:32 10° S 19:21:40 80° E 19:27:52 10° NNE
Cosmos 1766 3.3 19:18:27 10° SSW 19:22:14 73° W 19:26:03 10° N
Resurs 01 Rocket 1.5 19:19:50 24° SSE 19:22:27 72° ENE 19:26:51 10° N
Cosmos 2237 Rocket 3.2 19:18:06 10° NW 19:23:26 44° WSW 19:28:42 10° S
CARTOSAT-1 3.8 19:23:13 35° ESE 19:24:32 48° ENE 19:28:42 10° N
ATLAS CENTAUR R/B 4.4 19:10:28 10° WSW 19:26:48 78° NW 19:34:15 10° NE
Cosmos 1378 Rocket 3.5 19:23:26 10° N 19:27:53 89° E 19:30:39 23° S
CZ-4 R/B 4.1 19:25:13 10° SW 19:27:57 18° W 19:30:44 10° NW
MOS 1 4.3 19:24:48 24° SSE 19:28:19 67° ENE 19:34:00 10° N
SPOT 1/Viking Rocket 3.6 19:30:08 16° S 19:34:18 79° WSW 19:39:33 10° NNW
Cosmos 968 Rocket 4.0 19:29:33 10° NNW 19:34:37 56° WSW 19:38:31 16° S
Cosmos 1072 Rocket 4.5 19:31:24 10° N 19:37:49 70° E 19:41:30 26° SSE
Cosmos 1025 Rocket 3.9 19:35:21 10° N 19:38:54 31° ENE 19:38:54 31° ENE
Landsat 5 3.2 19:36:16 10° NNE 19:40:11 89° WNW 19:43:41 13° SSW
ERS-1 Rocket 3.8 19:42:33 31° ENE 19:42:58 31° ENE 19:47:21 10° N
NOSS 3-4 (A) 3.2 19:38:15 10° SW 19:43:54 86° SE 19:50:06 10° NE
NOSS 3-4 (C) 3.2 19:38:24 10° SW 19:44:01 85° SE 19:50:12 10° NE
FALCON 9 R/B 4.1 19:24:47 10° WSW 19:46:21 40° SSW 19:50:25 27° SSE
Meteor 1-22 Rocket 4.3 19:42:19 10° S 19:48:23 74° E 19:54:25 10° NNE
Okean-O 3.8 19:46:16 12° SSW 19:50:08 40° W 19:54:19 10° NNW
Okean O Rocket 4.4 19:48:57 10° SW 19:51:39 16° W 19:54:21 10° NW
Cosmos 1908 Rocket 3.4 19:51:55 54° SSE 19:52:52 75° E 19:57:20 10° NNE
SJ 16-02 1.4 19:48:40 10° NNW 19:53:01 58° ENE 19:53:10 58° ENE
Cosmos 1340 Rocket 3.6 19:50:14 10° N 19:53:10 38° NE 19:53:10 38° NE
Cosmos 1943 3.8 19:49:31 10° NNW 19:54:49 40° NE 19:55:47 37° ENE
SPOT 5 3.1 19:55:00 46° ENE 19:55:12 47° ENE 19:59:55 10° N
Lacrosse 5 rocket 2.5 19:51:45 10° W 19:55:46 40° NNW 19:58:03 21° NE
CZ-4C R/B 2.9 19:50:18 10° NW 19:57:24 80° NE 20:00:55 39° SE
ATLAS 3B R/B 4.0 19:50:52 10° NW 19:57:37 35° NNE 20:01:27 23° ENE
USA 245 4.2 19:58:52 37° NNE 19:58:52 37° NNE 20:02:03 10° N
Ariane Rocket 2.9 19:59:14 57° ESE 20:00:03 67° ENE 20:05:06 10° N
Cosmos 482 Debris 4.4 19:58:02 10° WNW 20:02:57 67° SW 20:02:57 67° SW
Cosmos 2297 Rocket 3.6 19:59:02 10° WSW 20:04:16 38° NW 20:09:33 10° NNE
Cosmos 1271 Rocket 4.5 20:01:10 10° SW 20:04:31 31° WNW 20:07:53 10° N
Cosmos 1464 Rocket 4.0 19:58:37 10° N 20:05:01 83° W 20:08:13 32° S
Meteor 1-24 Rocket 4.0 20:02:11 10° NNW 20:08:09 74° W 20:10:55 34° S
Spot 2 Rocket 3.7 20:10:40 52° ENE 20:10:40 52° ENE 20:15:35 10° N
Cosmos 1975 Rocket 3.5 20:07:08 10° N 20:10:48 50° NE 20:10:48 50° NE
ISS -2.1 20:08:24 10° WNW 20:10:27 32° W 20:10:27 32° W
PKM 4.3 20:08:28 10° WNW 20:11:25 53° WSW 20:11:25 53° WSW
Cosmos 2082 3.5 20:06:55 10° SSW 20:12:31 81° ESE 20:18:10 10° NNE
MetOp-A 4.4 20:16:25 42° SSW 20:18:03 62° WSW 20:23:08 10° NNW
Cosmos 2219 3.7 20:13:16 10° SW 20:18:48 58° WNW 20:24:22 10° NNE
Cosmos 1470 4.1 20:17:56 25° SW 20:19:38 38° WNW 20:23:19 10° N
Cosmos 2227 Rocket 3.3 20:15:14 10° SW 20:20:38 44° NW 20:26:04 10° NNE
Cosmos 1782 Rocket 4.3 20:28:08 47° N 20:28:08 47° N 20:31:19 10° N
ADEOS Rocket 3.2 20:29:34 60° ESE 20:30:41 71° ENE 20:37:53 10° NNW
BlueWalker 3 4.2 20:29:31 10° WSW 20:30:39 19° WSW 20:30:39 19° WSW
SL-16 R/B 3.4 20:30:41 10° NW 20:35:52 36° WSW 20:37:33 30° SW
Meteor 2-19 Rocket 4.4 20:35:49 51° SSW 20:37:27 81° W 20:43:36 10° N
Aureole 1 Rocket 4.4 20:34:03 10° NNW 20:36:44 31° N 20:36:44 31° N
H-2A R/B 3.5 20:44:38 46° W 20:44:38 46° W 20:48:31 10° NNW
Cosmos 1503 Rocket 4.2 20:40:53 10° NNW 20:45:51 69° W 20:45:51 69° W
Cosmos 1634 Rocket 3.9 20:39:54 10° N 20:46:14 74° ENE 20:46:14 74° ENE
Terra 2.4 20:48:27 53° NNW 20:48:27 53° NNW 20:52:06 10° NNW
SPOT 3 Rocket 3.8 20:48:30 66° W 20:48:30 66° W 20:53:36 10° NNW
USA 215 4.2 20:45:42 18° ENE 20:50:11 43° N 20:56:16 10° WNW
SL-4 R/B 3.7 20:54:02 10° W 20:56:45 33° W 20:56:45 33° W
Cosmos 489 Rocket 4.4 20:52:22 10° NNW 20:58:35 86° WNW 20:58:35 86° WNW
Resurs 01 Rocket 4.3 20:57:22 11° WSW 20:59:25 14° W 21:01:42 10° WNW
SME Rocket 4.3 20:59:14 71° SSE 21:00:12 89° ENE 21:06:04 10° NNW
Cosmos 2263 Rocket 2.4 21:02:47 65° NW 21:02:47 65° NW 21:08:12 10° NNE
ATLAS 2AS CENTAUR R/B 3.5 21:18:46 43° NE 21:18:46 43° NE 21:23:27 10° NE
H-2A R/B 4.4 21:13:01 10° NNE 21:14:08 18° NNE 21:14:08 18° NNE
Tsikada Rocket 4.3 21:18:38 56° W 21:19:05 57° WNW 21:25:10 10° N
ERS-1 Rocket 4.2 21:22:31 36° WNW 21:22:31 36° WNW 21:26:21 10° NNW
SJ 16-02 3.9 21:28:15 10° WNW 21:30:05 16° W 21:30:05 16° W
Lacrosse 5 rocket 4.1 21:32:02 10° WNW 21:33:24 17° NW 21:33:24 17° NW
Cosmos 1943 4.4 21:33:39 10° NW 21:37:36 35° WNW 21:37:36 35° WNW
ATLAS CENTAUR R/B 4.3 21:32:05 10° W 21:42:34 43° NNW 21:44:59 31° NE
CZ-4C R/B 4.1 21:39:16 10° NW 21:45:43 32° WSW 21:46:05 32° WSW
ATLAS 3B R/B 3.0 21:41:43 10° NW 21:48:41 77° NNW 21:48:41 77° NNW
NOSS 3-1 (A) 4.4 21:49:38 10° NW 21:56:30 52° NE 21:56:43 51° NE
Cosmos 2082 Rocket 4.3 22:00:58 10° N 22:04:35 17° NE 22:04:35 17° NE
Cosmos 1833 Rocket 4.3 22:03:27 10° NNW 22:06:52 29° NNE 22:06:52 29° NNE
USA 215 3.9 22:33:00 51° N 22:33:00 51° N 22:38:50 10° NW
Cosmos 2344 4.2 22:30:46 10° NW 22:38:56 65° WSW 22:38:56 65° WSW
NOSS 3-1 (C) 4.5 22:33:53 10° NW 22:39:12 53° WNW 22:39:12 53° WNW
Cosmos 1844 Rocket 4.5 22:56:39 27° N 22:56:39 27° N 22:59:25 10° NNE
ATLAS 2AS CENTAUR R/B 3.8 23:06:05 38° WNW 23:07:35 42° NNW 23:14:24 10° NE
Cosmos 2082 Rocket 4.1 23:44:10 10° NNW 23:46:25 25° NNW 23:46:25 25° NNW
